TimeCST,TemperatureF,Dew PointF,Humidity,Sea Level PressureIn,VisibilityMPH,Wind Direction,Wind SpeedMPH,Gust SpeedMPH,PrecipitationIn,Events,Conditions,WindDirDegrees,DateUTC
12:53 AM,42.1,36.0,79,30.33,10.0,NW,4.6,-,N/A,,Clear,320,2012-11-17 06:53:00
1:53 AM,39.0,36.0,89,30.32,10.0,Calm,Calm,-,N/A,,Clear,0,2012-11-17 07:53:00
2:53 AM,41.0,34.0,76,30.32,10.0,Calm,Calm,-,N/A,,Clear,0,2012-11-17 08:53:00
3:53 AM,39.0,33.1,79,30.32,10.0,Calm,Calm,-,N/A,,Clear,0,2012-11-17 09:53:00
4:53 AM,36.0,33.1,89,30.33,10.0,Calm,Calm,-,N/A,,Clear,0,2012-11-17 10:53:00
5:53 AM,36.0,33.1,89,30.34,10.0,Calm,Calm,-,N/A,,Clear,0,2012-11-17 11:53:00
6:53 AM,36.0,32.0,86,30.36,10.0,Calm,Calm,-,N/A,,Clear,0,2012-11-17 12:53:00
7:53 AM,45.0,34.0,65,30.38,10.0,ENE,3.5,-,N/A,,Clear,70,2012-11-17 13:53:00
8:13 AM,46.4,35.6,66,30.40,10.0,ENE,3.5,-,N/A,,Partly Cloudy,60,2012-11-17 14:13:00
8:53 AM,50.0,36.0,59,30.39,10.0,East,3.5,-,N/A,,Clear,90,2012-11-17 14:53:00
9:53 AM,55.9,37.0,49,30.40,10.0,Calm,Calm,-,N/A,,Clear,0,2012-11-17 15:53:00
10:53 AM,61.0,37.0,41,30.38,10.0,NE,3.5,-,N/A,,Clear,40,2012-11-17 16:53:00
11:53 AM,64.0,36.0,35,30.35,10.0,Variable,5.8,-,N/A,,Clear,0,2012-11-17 17:53:00
12:53 PM,64.9,33.1,31,30.33,10.0,ENE,4.6,-,N/A,,Clear,60,2012-11-17 18:53:00
1:53 PM,66.0,35.1,32,30.32,10.0,Variable,6.9,-,N/A,,Clear,0,2012-11-17 19:53:00
2:53 PM,66.0,36.0,33,30.30,10.0,Variable,4.6,-,N/A,,Clear,0,2012-11-17 20:53:00
3:53 PM,64.9,36.0,34,30.31,10.0,NNE,3.5,-,N/A,,Unknown,20,2012-11-17 21:53:00
4:53 PM,62.1,37.0,39,30.30,8.0,NE,3.5,-,N/A,,Clear,50,2012-11-17 22:53:00
5:53 PM,54.0,39.9,59,30.31,10.0,North,3.5,-,N/A,,Clear,10,2012-11-17 23:53:00
6:53 PM,50.0,39.9,68,30.31,10.0,Calm,Calm,-,N/A,,Clear,0,2012-11-18 00:53:00
7:53 PM,46.9,39.9,77,30.32,10.0,Calm,Calm,-,N/A,,Clear,0,2012-11-18 01:53:00
8:53 PM,46.9,39.9,77,30.34,10.0,Calm,Calm,-,N/A,,Clear,0,2012-11-18 02:53:00
9:53 PM,45.0,39.9,82,30.35,10.0,Calm,Calm,-,N/A,,Clear,0,2012-11-18 03:53:00
10:53 PM,42.1,39.0,89,30.35,10.0,WNW,3.5,-,N/A,,Clear,300,2012-11-18 04:53:00
11:53 PM,42.1,39.0,89,30.35,9.0,Calm,Calm,-,N/A,,Clear,0,2012-11-18 05:53:00